Weather History for Tucson, AZ

Change the Weather History Date:

Tuesday, February 4, 2014

  Actual Average Record
Temperature  
Mean Temperature 46 °F 54 °F  
Max Temperature 58 °F 67 °F 84 °F (1925)
Min Temperature 34 °F 41 °F 18 °F (2011)
Degree Days  
Heating Degree Days 19 11  
Month to date heating degree days 57 44  
Since 1 July heating degree days 752 1038  
Cooling Degree Days 0 0  
Month to date cooling degree days 0 0  
Year to date cooling degree days 1 1  
Moisture  
Dew Point 28 °F    
Average Humidity 57    
Maximum Humidity 89    
Minimum Humidity 25    
Precipitation  
Precipitation 0.00 in 0.04 in 0.76 in (1958)
Month to date precipitation 0.01 0.14  
Year to date precipitation 0.01 1.08  
Sea Level Pressure  
Sea Level Pressure 30.01 in    
Wind  
Wind Speed 5 mph (SE)    
Max Wind Speed 13 mph    
Max Gust Speed 19 mph    
Visibility 10 miles    
Events      
T = Trace of Precipitation, MM = Missing Value Source: NWS Daily Summary

Daily Weather History Graph

Daily Weather History Graph

Search for Another Location

Airport:

Trip Planner

Search our weather history database for the weather conditions in past years. The results will help you decide how hot, cold, wet, or windy it might be!

Date:

Astronomy

Feb. 04, 2014 Rise Set
Actual Time 7:15 AM MST 6:00 PM MST
Civil Twilight 6:49 AM MST 6:25 PM MST
Nautical Twilight 6:20 AM MST 6:55 PM MST
Astronomical Twilight 5:52 AM MST 7:23 PM MST
Moon 10:17 AM MST (2/4) 11:34 PM MST (2/4)
Length of Visible Light 11h 36m
Length of Day
10h 45m
Waxing Crescent, 29% of the Moon is Illuminated
Feb 4
Waxing Crescent
Feb 6
First Quarter
Feb 14
Full
Feb 22
Last Quarter
Mar 1
New

Hourly Weather History & Observations

Time (MST) Temp. Windchill Dew Point Humidity Pressure Visibility Wind Dir Wind Speed Gust Speed Precip Events Conditions
12:53 AM 39.0 °F 34.8 °F 34.0 °F 82% 29.93 in 10.0 mi SE 5.8 mph - N/A   Scattered Clouds
1:53 AM 37.9 °F 32.1 °F 33.1 °F 83% 29.94 in 10.0 mi SE 8.1 mph - N/A   Clear
2:53 AM 35.1 °F - 30.9 °F 85% 29.96 in 10.0 mi Calm Calm - N/A   Clear
3:53 AM 36.0 °F - 32.0 °F 86% 29.96 in 10.0 mi Calm Calm - N/A   Clear
4:53 AM 37.0 °F 31.6 °F 32.0 °F 82% 29.98 in 10.0 mi SE 6.9 mph - N/A   Clear
5:53 AM 36.0 °F 30.3 °F 32.0 °F 86% 29.99 in 10.0 mi SE 6.9 mph - N/A   Clear
6:53 AM 36.0 °F 31.1 °F 30.9 °F 82% 30.01 in 10.0 mi SE 5.8 mph - N/A   Clear
7:53 AM 39.0 °F 33.4 °F 33.1 °F 79% 30.03 in 10.0 mi SE 8.1 mph - N/A   Clear
8:53 AM 44.1 °F 39.0 °F 33.1 °F 65% 30.04 in 10.0 mi SSE 9.2 mph - N/A   Clear
9:53 AM 48.0 °F - 34.0 °F 58% 30.06 in 10.0 mi Variable 5.8 mph - N/A   Clear
10:53 AM 51.1 °F - 28.9 °F 43% 30.07 in 10.0 mi Calm Calm - N/A   Clear
11:53 AM 53.1 °F - 25.0 °F 34% 30.06 in 10.0 mi Variable 3.5 mph - N/A   Clear
12:53 PM 55.0 °F - 24.1 °F 30% 30.03 in 10.0 mi Variable 3.5 mph - N/A   Partly Cloudy
1:53 PM 57.0 °F - 23.0 °F 27% 30.00 in 10.0 mi Variable 3.5 mph - N/A   Partly Cloudy
2:53 PM 57.0 °F - 24.1 °F 28% 29.99 in 10.0 mi Variable 3.5 mph - N/A   Mostly Cloudy
3:53 PM 57.0 °F - 24.1 °F 28% 29.98 in 10.0 mi West 5.8 mph - N/A   Clear
4:53 PM 57.0 °F - 23.0 °F 27% 29.98 in 10.0 mi North - - N/A   Clear
5:53 PM 57.0 °F - 23.0 °F 27% 29.98 in 10.0 mi Calm Calm - N/A   Clear
6:53 PM 54.0 °F - 25.0 °F 33% 30.00 in 10.0 mi North 4.6 mph - N/A   Clear
7:53 PM 52.0 °F - 26.1 °F 37% 30.01 in 10.0 mi NNE 3.5 mph - N/A   Clear
8:53 PM 50.0 °F - 26.1 °F 39% 30.01 in 10.0 mi Calm Calm - N/A   Clear
9:53 PM 45.0 °F 41.8 °F 25.0 °F 46% 30.03 in 10.0 mi South 5.8 mph - N/A   Clear
10:53 PM 45.0 °F 40.6 °F 26.1 °F 48% 30.03 in 10.0 mi SE 8.1 mph - N/A   Clear
11:53 PM 42.1 °F 37.7 °F 25.0 °F 51% 30.04 in 10.0 mi SE 6.9 mph - N/A   Clear